Location: Poughquag
(41.6090°N, 73.6820°W)
Time: 19:55:55
(UTC-04:00)

STARLINK-1353 - Pass Details

Date: 29 May 2020
Orbit: 531 x 535 km, 53.0° (Epoch: 04 July)

Event Time Altitude Azimuth Distance (km) Brightness Sun altitude
Exits shadow 02:58:17 23° 286° (WNW) 1,169 5.1 -20.3°
Maximum altitude 03:00:05 34° 333° (NNW) 892 4.9 -20.1°
Drops below altitude 10° 03:03:54 10° 40° (NE) 1,817 7.5 -19.7°
Sets 03:06:12 0° 50° (NE) 2,682 8.5 -19.5°
